Location: Colonia Mina de C?rbuni
(46.1667°N, 22.7167°E)
Time: 06:09:11
(UTC+00:00)

Cosmos 1461 - Pass Details

Date: 04 February 2023
Orbit: 492 x 644 km, 65.0° (Epoch: 21 March)

Event Time Altitude Azimuth Distance (km) Brightness Sun altitude
Rises 16:03:23 0° 190° (S) 2,723 6.8 -5.0°
Reaches altitude 10° 16:05:40 10° 181° (S) 1,860 5.8 -5.3°
Maximum altitude 16:09:28 34° 116° (ESE) 982 3.8 -6.0°
Drops below altitude 10° 16:13:27 10° 52° (NE) 1,961 5.0 -6.6°
Enters shadow 16:14:27 - 48° (NE) 2,332 5.5 -6.8°
